Weather Roundup
Issued by NWS Chicago, IL

Home | Current Version | Previous Version | Graphics & Text | Print | Product List | Glossary On
Versions: 1 2 3 4 5 6 7 8 9 10 11 12 13 14 15 16 17 18 19 20 21 22 23 24 25 26 27 28 29 30 31 32 33 34 35 36 37 38 39 40 41 42 43 44 45 46 47 48 49 50
000
NZUS59 KLOT 251110
HRRLOT

CHICAGO AREA WEATHER ROUNDUP
NATIONAL WEATHER SERVICE CHICAGO/ROMEOVILLE IL
500 AM CST THU DEC 25 2014

NOTE: "FAIR" INDICATES FEW OR NO CLOUDS BELOW 12,000 FEET WITH NO
SIGNIFICANT WEATHER AND/OR OBSTRUCTIONS TO VISIBILITY.

* THESE STATIONS ARE NOT UNDER NWS QUALITY CONTROL. THEY ALSO MAY NOT
  REPORT WEATHER SUCH AS PRECIPITATION OR FOG.

ILZ005-006-012>014-019>023-251200-
NORTHEAST ILLINOIS

CITY           SKY/WX    TMP DP  RH WIND       PRES   REMARKS
OHARE          CLOUDY    34  27  75 W17G26    29.80R WCI  23
MIDWAY         CLOUDY    36  30  79 W15G22    29.83R
AURORA         CLOUDY    34  28  79 W9        29.82R WCI  27
LANSING*       CLOUDY    34  30  85 W15       29.84R WCI  24
JOLIET*        CLOUDY    33  29  86 SW6       29.84S WCI  27
WAUKEGAN       CLOUDY    34  27  75 VRB7      29.77R WCI  28
DUPAGE AIRPORT CLOUDY    34  28  79 W10       29.81R WCI  26
WHEELING       CLOUDY    35  28  75 W12G24    29.82R WCI  27
KANKAKEE*      CLOUDY    34  31  89 SW10      29.87R WCI  26
MORRIS*        CLOUDY    34  32  92 W7        29.84R WCI  28
LEWIS AIRPORT* CLOUDY    33  30  88 W9        29.83R WCI  25
NORTHERLY IS     N/A     36  29  76 W12         N/A
$$

WIZ051-052-058>065-066-070>072-251200-
SOUTHEAST WISCONSIN

CITY           SKY/WX    TMP DP  RH WIND       PRES   REMARKS
MILWAUKEE      CLOUDY    36  27  69 W15G22    29.75R
KENOSHA*       CLOUDY    35  28  75 W13       29.76R WCI  26
RACINE*        CLOUDY    35  27  72 W12       29.77R WCI  27
BURLINGTON     CLOUDY    32  28  84 W12G18    29.77R WCI  23
WEST BEND      CLOUDY    34  28  80 SW9       29.71R WCI  26
$$

INZ001>003-010>013-019-020-251200-
NORTHWEST INDIANA

CITY           SKY/WX    TMP DP  RH WIND       PRES   REMARKS
GARY*          CLOUDY    36  28  75 W10       29.84R
MICHIGAN CITY* NOT AVBL
RENSSELAER*    NOT AVBL
VALPARAISO     CLOUDY    34  30  85 W14G25    29.84R WCI  25
$$

LMZ740>746-251200-
SOUTHERN LAKE MICHIGAN

STATION/POSITION TIME  SKY/WX   TEMP WIND        PRES    VSBY
                                AIR  DIR/SP/G
                 (UTC)          (F)  (DEG/KT/KT) (MB)    (MI)
HARRISON CRIB    1100            36  250/ 19/ 28   N/A
BURNHAM HARBOR   1100            36  280/  8/ 15   N/A
CALUMET HARBOR   1100            35  240/ 10/ 16 1008.9R
BURNS HARBOR     NOT AVBL
MICHIGAN CITY    1100            37  240/ 25/ 29   N/A
$$

ABBREVIATIONS USED IN REMARKS
   TC - TEMPERATURE IN CELSIUS
  WCI - WIND CHILL INDEX
   HX - HEAT INDEX
  VSB - VISIBILITY
$$



USA.gov is the U.S. government's official web portal to all federal, state and local government web resources and services.